Regional Weather Roundup
Issued by NWS Jackson, KY

Home | Current Version | Previous Version | Graphics & Text | Print | Product List | Glossary On
Versions: 1 2 3 4 5 6 7 8 9 10 11 12 13 14 15 16 17 18 19 20 21 22 23 24 25 26 27 28 29 30 31 32 33 34 35 36 37 38 39 40 41 42 43 44 45 46 47 48 49 50
000
ASUS43 KJKL 030010
RWRJKL

EAST KENTUCKY HOURLY WEATHER ROUNDUP
NATIONAL WEATHER SERVICE JACKSON KY
700 PM EST MON MAR 02 2015

NOTE: "FAIR" INDICATES FEW OR NO CLOUDS BELOW 12,000 FEET WITH
NO SIGNIFICANT WEATHER AND/OR OBSTRUCTIONS TO VISIBILITY.

* THESE REPORTS ARE NOT UNDER NWS QUALITY CONTROL AND MAY NOT
  REPORT WEATHER SUCH AS PRECIPITATION AND FOG.

KYZ079-080-083-085-087-088-110-112-115-119-120-030100
...EASTERN KENTUCKY...

CITY           SKY/WX    TMP DP  RH WIND       PRES   REMARKS
JACKSON        PTCLDY    36  18  48 NE5       30.36R WCI  32
6HR MIN TEMP:  36; 6HR MAX TEMP:  43;

LONDON         PTCLDY    40  18  41 N3        30.34S
6HR MIN TEMP:  40; 6HR MAX TEMP:  45;

SOMERSET*      PTCLDY    36  23  60 NE5       30.37S WCI  32
MONTICELLO*    CLEAR     38  26  62 NE6       30.36F WCI  33
6HR MIN TEMP:  39; 6HR MAX TEMP:  47;

MIDDLESBORO*   PTCLDY    39  32  75 CALM      30.35R
6HR MIN TEMP:  39; 6HR MAX TEMP:  46;

HAZARD APT*    CLEAR     39  18  41 CALM      30.36
BLACK MTN*       N/A     28  27  93 SW1         N/A
PIKEVILLE APT* CLEAR     36  19  51 N6        30.36R WCI  31
BIG SANDY*     PTCLDY    36  19  50 N3        30.38R
6HR MIN TEMP:  36; 6HR MAX TEMP:  43;

MOREHEAD APT*  PTCLDY    32  19  59 NW5       30.42S WCI  27
$$

KYZ035-036-041-042-044-050-067-078-099-030100
...CENTRAL KENTUCKY...

CITY           SKY/WX    TMP DP  RH WIND       PRES   REMARKS
MT STERLING*   PTCLDY    32  21  64 NE6       30.41S WCI  26
FLEMING/MASON* CLEAR     30  16  55 N6        30.43R WCI  24
DANVILLE*      MOCLDY    32  23  69 NE7       30.39S WCI  26
RICHMOND*      MOCLDY    32  23  69 N3        30.38S
LEXINGTON      PTCLDY    31  21  66 N6        30.40S WCI  25
6HR MIN TEMP:  31; 6HR MAX TEMP:  37;

FRANKFORT      PTCLDY    33  20  58 E5        30.40S WCI  29
6HR MIN TEMP:  32; 6HR MAX TEMP:  38;

$$

KYZ091>093-OHZ055-061-077-WVZ005-015-034-035-042-030100
...SOUTHERN OHIO/WEST VIRGINIA...

CITY           SKY/WX    TMP DP  RH WIND       PRES   REMARKS
COVINGTON      MOCLDY    32  14  47 NE7       30.42S WCI  26
COLUMBUS       MOCLDY    26   9  48 N3        30.44R
DAYTON         MOCLDY    23  13  65 CALM      30.44R
WILMINGTON     PTCLDY    22  13  68 CALM      30.43S
HUNTINGTON     PTCLDY    33  17  51 NE5       30.41R WCI  29
CHARLESTON     PTCLDY    34  17  50 N6        30.40R WCI  29
PINEVILLE*     PTCLDY    33  29  85 MISG      30.39R
BECKLEY        CLEAR     32  14  47 NE5       30.31R WCI  27
BLUEFIELD      MOCLDY    36  17  46 W6        30.30R WCI  31
$$

VAZ002-007-008-TNZ017-027-036-066-071-030100
...SOUTHWEST VIRGINIA/EAST TENNESSEE...

CITY           SKY/WX    TMP DP  RH WIND       PRES   REMARKS
WISE*          PTCLDY    36  23  60 N5        30.32R WCI  32
JONESVILLE*    PTCLDY    37  28  70 CALM      30.35S
ABINGDON*      PTCLDY    40  24  51 N5        30.32S
BRISTOL        MOCLDY    41  28  60 SW5       30.34R
OAK RIDGE      CLEAR     45  30  55 NE7       30.32F
CROSSVILLE     CLEAR     41  29  62 CALM      30.31R
NASHVILLE      MOCLDY    46  30  53 E5        30.32F
$$

...KEY TO REMARKS...
VSB - VISIBILITY IN MILES
WCI - WIND CHILL INDEX
HX  - HEAT INDEX

$$


USA.gov is the U.S. government's official web portal to all federal, state and local government web resources and services.